[[{"header":{"parameterUnit":"m.s-1","parameterCategory":1,"la1":30.2991,"la2":30.254,"lo1":-89.0895,"lo2":-89.0444,"dy":0.0017,"dx":0.0017,"nx":28,"ny":28,"refTime":"2024-02-27T03:00:00:Z","depth":0,"parameterNumber":2,"parameterNumberName":"U-component_of_WINDS"},"data":[0,0,0,0,0,0,0,0,0,0,0,0,0,0,0,0,0,0,0,0,0,0,0,0,0,0,0,0,0,0,0,0,0,0,0,0,0,0,0,0,0,0,0,0,0,0,0,0,0,0,0,0,0,0,0,0,0,0,1.4809,1.4809,0,1.4857,1.4857,1.4858,1.4859,1.4858,1.4858,1.4857,1.4907,1.4909,1.4911,0,0,0,0,0,0,0,0,0,0,0,0,0,1.4719,1.472,1.4809,1.4809,1.481,1.4857,1.4857,1.4858,1.4859,1.4858,1.4857,1.4857,1.4906,1.4909,1.4911,0,0,0,0,0,0,0,0,0,0,0,0,0,1.4761,1.4721,1.4809,1.4816,1.4817,1.4856,1.4857,1.4858,1.4859,1.4858,1.4857,1.4856,1.4906,1.4908,1.4911,1.4947,0,0,1.492,1.4921,0,0,0,0,0,0,0,0,1.4759,1.4765,1.4814,1.4816,1.4817,1.4851,1.4844,1.4888,1.4859,1.4843,1.4857,1.4856,1.4889,1.4893,1.4904,1.4949,1.4951,1.492,1.4922,1.4923,1.4924,0,0,0,0,0,0,0,1.4756,1.4763,1.4828,1.4815,1.4817,1.4817,1.4822,1.4852,1.4871,1.4845,1.4845,1.485,1.489,1.4902,1.4905,1.4952,1.492,1.4923,1.4924,1.4925,1.5028,1.5029,0,0,0,0,0,0,1.4751,1.476,1.4826,1.4829,1.4785,1.4819,1.4825,1.4841,1.487,1.4874,1.4851,1.485,1.4897,1.4902,1.4907,1.495,1.4923,1.4926,1.4927,1.5027,1.5028,1.5029,0,0,0,0,0,0,1.4749,1.4757,1.4824,1.4795,1.4803,1.4822,1.484,1.4842,1.4854,1.4875,1.4879,1.486,1.4897,1.4903,1.4937,1.4952,1.4927,1.493,1.5026,1.5027,1.5029,1.5037,0,0,0,0,0,0,1.4747,1.4757,1.477,1.4795,1.4805,1.4853,1.4841,1.4844,1.4859,1.4858,1.4884,1.4888,1.4896,1.4932,1.494,1.4956,1.4932,1.5024,1.5026,1.5028,1.5036,1.5039,1.5042,0,0,0,0,0,1.4744,1.4771,1.4771,1.4779,1.4822,1.4854,1.4859,1.4868,1.486,1.4874,1.4887,1.4887,1.4949,1.4936,1.4944,1.4961,1.5024,1.5026,1.5028,1.5034,1.5038,1.5042,0,0,0,0,0,0,1.4747,1.4774,1.4774,1.481,1.4829,1.4854,1.4871,1.4872,1.4895,1.4893,1.4904,1.491,1.4943,1.4956,1.494,1.4997,1.4986,1.499,1.4988,1.4991,1.4994,1.4991,1.4934,0,0,0,0,0,1.4752,1.4775,1.4798,1.4827,1.4837,1.4852,1.4866,1.4872,1.4893,1.4901,1.4917,1.4937,1.4961,1.4977,1.5001,1.5038,1.5043,1.5053,1.5056,1.5059,1.5062,1.5083,1.5087,1.5037,1.5037,1.5037,0,0,1.4762,1.478,1.4794,1.4828,1.4844,1.4868,1.4859,1.4885,1.4903,1.4905,1.4937,1.495,1.4973,1.5009,1.5025,1.502,1.5077,1.5062,1.5063,1.5065,1.5085,1.509,1.5094,1.5039,1.5038,1.5038,0,0,1.4793,1.4809,1.4835,1.4851,1.4875,1.4885,1.4892,1.4916,1.4924,1.4957,1.4959,1.4981,1.5022,1.5039,1.5052,1.509,1.5091,1.5098,1.5113,1.5133,1.5137,1.5141,1.5154,1.5159,1.5101,1.5101,1.5101,0,1.4803,1.4839,1.4849,1.4874,1.4889,1.4892,1.4919,1.4934,1.4964,1.4975,1.4969,1.5021,1.5037,1.5076,1.5085,1.5097,1.5104,1.5095,1.5136,1.5139,1.5143,1.5156,1.5161,1.5102,1.5102,1.5101,1.5101,0,1.485,1.4875,1.4894,1.4923,1.494,1.4966,1.498,1.4996,1.5,1.5011,1.5045,1.5064,1.5091,1.5101,1.5105,1.5141,1.5137,1.5133,1.5122,1.5148,1.516,1.5165,1.5103,1.5102,1.5102,1.5102,0,0,1.4884,1.4918,1.4925,1.4938,1.4965,1.4985,1.5011,1.5038,1.5052,1.5073,1.5095,1.513,1.5127,1.5143,1.5149,1.5166,1.5195,1.516,1.5161,1.5166,1.5236,1.5238,1.5244,1.5196,1.5196,1.5197,1.5234,0,1.4918,1.4965,1.4974,1.5015,1.5038,1.5041,1.5065,1.5084,1.5095,1.5116,1.5129,1.5153,1.5147,1.5157,1.5174,1.5188,1.5209,1.5185,1.5217,1.5218,1.521,1.525,1.5253,1.5286,1.5238,1.5239,1.524,0,1.4963,1.4985,1.5028,1.5052,1.5062,1.5083,1.5108,1.5129,1.5151,1.5158,1.5175,1.518,1.5208,1.5195,1.5234,1.5218,1.5231,1.524,1.5241,1.5244,1.523,1.5254,1.5297,1.5302,1.5248,1.5247,1.5246,0,1.4984,1.5024,1.5055,1.5066,1.5095,1.5109,1.5122,1.5143,1.5159,1.5181,1.5191,1.5216,1.523,1.525,1.5261,1.5251,1.5299,1.5288,1.5306,1.5305,1.5315,1.5314,1.5361,1.5324,1.5324,1.5324,1.5324,0,1.502,1.5046,1.5065,1.5084,1.5113,1.5124,1.5153,1.5165,1.5184,1.5206,1.521,1.5231,1.5244,1.5267,1.5276,1.5307,1.5313,1.5319,1.5321,1.5319,1.5318,1.5327,1.5325,1.5325,1.5325,1.5325,1.5325,0,1.5047,1.5061,1.5095,1.5119,1.5126,1.5147,1.5168,1.5186,1.5198,1.5225,1.5232,1.525,1.5277,1.529,1.5323,1.5329,1.5364,1.5365,1.5356,1.5357,1.5374,1.5372,1.5428,1.5436,1.5394,1.5395,1.5395,0,1.507,1.509,1.5117,1.5131,1.5144,1.5168,1.5184,1.5196,1.5212,1.5239,1.5254,1.5281,1.5303,1.5345,1.5361,1.5387,1.5388,1.5406,1.5392,1.5389,1.5388,1.5386,1.5389,1.5408,1.5409,1.5409,1.5409,0,1.5107,1.5113,1.5136,1.5161,1.518,1.52,1.522,1.5232,1.5247,1.5266,1.5293,1.531,1.5344,1.537,1.5397,1.541,1.5412,1.5414,1.5419,1.5416,1.5411,1.5414,1.5363,1.5412,1.5412,1.5412,1.5411,1.5411,1.5133,1.5151,1.5173,1.5198,1.5214,1.5233,1.5252,1.5266,1.5288,1.5317,1.5322,1.5351,1.5373,1.5409,1.5423,1.5446,1.5442,1.545,1.5452,1.5454,1.5454,1.5407,1.5451,1.5451,1.5451,1.5451,1.5451,0,1.5171,1.5185,1.5208,1.5236,1.5256,1.5256,1.5279,1.5295,1.5321,1.5341,1.5362,1.5394,1.5419,1.5438,1.5464,1.5479,1.548,1.5485,1.5484,1.5487,1.5456,1.5449,1.5483,1.5483,1.5483,1.5483,1.5483,1.5483,1.5192,1.5223,1.5232,1.5271,1.5285,1.5313,1.5326,1.5343,1.5359,1.5394,1.5416,1.5427,1.5447,1.5475,1.5498,1.5503,1.5513,1.5517,1.5522,1.5493,1.5489,1.5486,1.5479,1.5519,1.5519,1.5551,1.5551,1.5551]},{"header":{"parameterUnit":"m.s-1","parameterCategory":1,"la1":30.2991,"la2":30.254,"lo1":-89.0895,"lo2":-89.0444,"dy":0.0017,"dx":0.0017,"nx":28,"ny":28,"refTime":"2024-02-27T03:00:00:Z","depth":0,"parameterNumber":3,"parameterNumberName":"V-component_of_WINDS"},"data":[0,0,0,0,0,0,0,0,0,0,0,0,0,0,0,0,0,0,0,0,0,0,0,0,0,0,0,0,0,0,0,0,0,0,0,0,0,0,0,0,0,0,0,0,0,0,0,0,0,0,0,0,0,0,0,0,0,0,5.4044,5.4045,0,5.4075,5.4075,5.4075,5.4043,5.4042,5.4041,5.4039,5.4066,5.4068,5.407,0,0,0,0,0,0,0,0,0,0,0,0,0,5.3955,5.3956,5.4044,5.4045,5.4045,5.4075,5.4075,5.4075,5.4043,5.4042,5.404,5.4039,5.4066,5.4068,5.407,0,0,0,0,0,0,0,0,0,0,0,0,0,5.399,5.3957,5.4044,5.4033,5.4032,5.4075,5.4075,5.4076,5.4044,5.4042,5.404,5.4038,5.4065,5.4067,5.407,5.4124,0,0,5.4079,5.408,0,0,0,0,0,0,0,0,5.3988,5.3993,5.4034,5.4034,5.4033,5.4053,5.4053,5.4092,5.4044,5.4039,5.4039,5.4037,5.4063,5.4066,5.4075,5.4126,5.4127,5.4079,5.4081,5.4082,5.4083,0,0,0,0,0,0,0,5.3986,5.3992,5.4056,5.4035,5.4034,5.4025,5.4028,5.406,5.4061,5.4039,5.4037,5.4041,5.4062,5.4073,5.4076,5.4127,5.4079,5.4081,5.4083,5.4084,5.4224,5.4226,0,0,0,0,0,0,5.3985,5.399,5.4055,5.4057,5.4006,5.4028,5.4031,5.4049,5.406,5.4061,5.4043,5.404,5.4069,5.4073,5.4077,5.4142,5.4082,5.4084,5.4086,5.4222,5.4225,5.4227,0,0,0,0,0,0,5.3983,5.3991,5.4054,5.4023,5.403,5.4031,5.4051,5.405,5.4061,5.4063,5.4063,5.4054,5.4068,5.4073,5.4113,5.4142,5.4086,5.4088,5.422,5.4223,5.4226,5.4272,0,0,0,0,0,0,5.3981,5.3991,5.4012,5.4024,5.4032,5.4091,5.4053,5.4052,5.4066,5.4062,5.4073,5.4073,5.4067,5.4109,5.4116,5.4145,5.409,5.4217,5.4221,5.4225,5.4268,5.4277,5.4284,0,0,0,0,0,5.3978,5.4023,5.4014,5.4022,5.4059,5.4093,5.4098,5.409,5.4069,5.409,5.4091,5.4073,5.4138,5.4114,5.4121,5.4151,5.4215,5.422,5.4224,5.4265,5.4275,5.4284,0,0,0,0,0,0,5.4012,5.4024,5.4014,5.4064,5.4078,5.4088,5.4114,5.4101,5.412,5.4116,5.4104,5.4107,5.4151,5.4155,5.4128,5.4205,5.4173,5.4179,5.4201,5.4211,5.4218,5.4217,5.4093,0,0,0,0,0,5.4026,5.4055,5.4062,5.4106,5.4114,5.4113,5.4127,5.4121,5.4134,5.4139,5.4144,5.4156,5.418,5.4195,5.4216,5.4268,5.427,5.4293,5.43,5.4307,5.4313,5.4341,5.4352,5.4242,5.4242,5.4242,0,0,5.4055,5.4064,5.4082,5.4113,5.4123,5.4152,5.4118,5.4149,5.417,5.4143,5.4183,5.4187,5.42,5.4247,5.4267,5.4251,5.4343,5.4313,5.4318,5.432,5.4347,5.4358,5.4367,5.4245,5.4244,5.4244,0,0,5.4121,5.4131,5.417,5.4181,5.4197,5.4197,5.4206,5.4218,5.422,5.426,5.4241,5.4264,5.4304,5.4315,5.4326,5.4398,5.4382,5.4405,5.4446,5.4474,5.4482,5.449,5.4517,5.4526,5.441,5.441,5.441,0,5.4154,5.4198,5.419,5.4224,5.4238,5.4217,5.4256,5.4266,5.4288,5.4298,5.428,5.4331,5.4338,5.4388,5.4406,5.4414,5.4424,5.4404,5.4482,5.449,5.4497,5.4522,5.4532,5.4413,5.4413,5.4412,5.4412,0,5.4237,5.4268,5.4297,5.4321,5.4338,5.4374,5.4371,5.4389,5.4381,5.4382,5.4423,5.4431,5.4454,5.4465,5.4456,5.4514,5.4504,5.4484,5.4452,5.451,5.4534,5.4543,5.4417,5.4416,5.4415,5.4415,0,0,5.4326,5.4348,5.4358,5.437,5.4387,5.441,5.4444,5.4469,5.4485,5.45,5.4529,5.4564,5.4547,5.4559,5.4551,5.4576,5.4633,5.4553,5.4553,5.4569,5.4698,5.4714,5.4725,5.4623,5.4624,5.4626,5.4697,0,5.4394,5.4457,5.4452,5.451,5.4538,5.4519,5.4549,5.4562,5.4564,5.4588,5.4588,5.4614,5.4589,5.4596,5.462,5.4622,5.4659,5.4616,5.4649,5.465,5.4648,5.4737,5.4754,5.4821,5.4706,5.4708,5.4709,0,5.4482,5.4504,5.4566,5.458,5.4592,5.4619,5.4642,5.4665,5.4679,5.4678,5.4693,5.4681,5.4715,5.4682,5.4728,5.4699,5.4712,5.4715,5.4717,5.4721,5.4684,5.4744,5.4842,5.4852,5.4723,5.4722,5.4721,0,5.4543,5.4587,5.463,5.464,5.4657,5.4677,5.4685,5.4698,5.4713,5.4732,5.4742,5.4765,5.4777,5.4794,5.4788,5.4765,5.4837,5.4802,5.4837,5.4837,5.4854,5.4853,5.4956,5.486,5.486,5.486,5.486,0,5.462,5.4659,5.4658,5.4685,5.4727,5.4721,5.4763,5.4768,5.4779,5.4806,5.4789,5.4814,5.4805,5.4829,5.4825,5.4865,5.487,5.487,5.4869,5.4873,5.4873,5.4882,5.4877,5.4863,5.4862,5.4862,5.4861,0,5.4695,5.4696,5.4742,5.4756,5.476,5.4791,5.4802,5.4826,5.4827,5.4861,5.4868,5.4869,5.4897,5.4893,5.4923,5.492,5.497,5.4962,5.4966,5.4965,5.5,5.4997,5.5113,5.5128,5.5022,5.5023,5.5024,0,5.4745,5.4775,5.4792,5.481,5.482,5.4848,5.4865,5.4859,5.4876,5.4896,5.4918,5.4945,5.4966,5.5011,5.5013,5.5036,5.503,5.5069,5.5033,5.5036,5.5032,5.5031,5.5034,5.5076,5.5077,5.5078,5.5079,0,5.4834,5.4833,5.4859,5.4885,5.4906,5.4925,5.4943,5.4958,5.4954,5.4974,5.5003,5.502,5.5052,5.5079,5.5101,5.5107,5.5093,5.509,5.51,5.5104,5.5106,5.5107,5.4987,5.5088,5.5087,5.5086,5.5086,5.5085,5.4899,5.4925,5.4942,5.4971,5.4985,5.5002,5.5026,5.5031,5.5056,5.5083,5.5077,5.5111,5.5124,5.5153,5.5162,5.5187,5.5172,5.5186,5.5189,5.5193,5.5198,5.5101,5.519,5.519,5.519,5.519,5.5189,0,5.4988,5.4998,5.5025,5.5052,5.5075,5.5061,5.508,5.51,5.513,5.5145,5.5167,5.5201,5.5227,5.5232,5.5256,5.5275,5.5269,5.5282,5.5281,5.5283,5.5209,5.5199,5.5287,5.5287,5.5287,5.5287,5.5287,5.5287,5.5037,5.5082,5.5083,5.5134,5.5143,5.5177,5.519,5.5205,5.5217,5.5257,5.5279,5.5283,5.5294,5.5319,5.5342,5.5343,5.5353,5.5369,5.5367,5.5298,5.5288,5.5279,5.527,5.5371,5.5371,5.5439,5.544,5.5441]}]]